BREEZE-M DEB [TANK] (44309 NORAD) Tracking and Keplerian Element Data

This shows tracking and keplerian element data for the satellite.

Feedback or suggestion? Click here.




ElementValue
Catalog44309
NameBREEZE-M DEB [TANK]
Epoch Orbit115
Epoch Day176.35822363
Epoch Year2019
RAAN146.4037
Inclination49.4913
Eccentricity0.566135
Argument of Perigee7.9362
Mean Anonmoly358.1326
Mean Motion4.51502968
Decay Rate1.2E-07
L11 44309U 19031C 19176.35822363 .00000012 00000-0 00000-0 0 9993
L22 44309 49.4913 146.4037 5661350 7.9362 358.1326 4.51502968 1155

Live tracking and technical data element details for BREEZE-M DEB [TANK] (NORAD 44309). BREEZE-M DEB [TANK] can be tracked NOW for your location showing map with azimuth and elevation plus other details from your city location.

Track the satellite on the map from your city or location and see movement details for azimuth, elevation, latitude, longitude, range, height, and movement on the map or in text.







IsCatalogInMostPopularTable: catalog: 44309, numindb: 13
Update: records affected: 1



GetName: 44309 BREEZE-M DEB [TANK]

Hit Count: updated at: Wed, 17 Jul 2019 08:36:21 GMT